一网星座-0057星 (ONEWEB-0057 )

导读

ONEWEB-0057是英国OneWeb低轨宽带星座的一员,于2020年2月6日由联盟2-1b/“弗雷盖特”运载火箭发射入轨。卫星重约147.5公斤,运行于1200公里低地轨道,配备Ku/Ka波段天线,设计寿命超7年。作为OneWeb全球互联网星座的组成部分,它服务于航空、海事、社区WiFi及应急响应等场景,助力实现全球无缝宽带覆盖。

Basic Information
目录编号:
45160
目录名称:
ONEWEB-0057
国际标识:
2020-008AF
轨道中心:
EARTH
卫星名称:
一网星座-0057星
卫星全名:
一网星座-0057星 (ONEWEB-0057 )
卫星状态:
在轨 (已飞行2413 天)
发射日期:
2020-02-06 UTC
国别 :
英国 (GB)
星等 :
--
This satellite is enrolled in the Space Conjunction Data Service (SCDS) and the current flight risk assessment level is: No High Risk
Orbit Information
数据来源 国际轨道数据 AOE轨道数据
星历时间 2026-09-15T23:08:54+0800
6小时前
查看轨道信息
2026-09-11T06:00:00+0800
5天前
查看轨道信息
半长轴 7599.85km 7599.875km
偏心率 0.0002124 0.0001876
轨道倾角 87.891° 87.890°
近地点辐角 111.988° 110.499°
升交点赤经 18.268° 19.205°
平近点角 248.147° 342.356°
近地点 1220.098km 1220.312km
远地点 1223.328km 1223.164km
周期 109.892分钟 109.893分钟
每日圈数 13.103739 13.103675
Detailed Information
平衡模式:
三轴稳定
覆盖范围:
全球
运营商:
一网卫星公司
运营商所在国:
英国
制造商(研发单位):
一网卫星公司
制造商所在国:
英国
使用方式:
暂无
Satellite Introduction
OneWeb卫星网络由648颗重约125公斤的微型卫星组成,运行在1200公里的轨道上。 每颗卫星都能够提供至少每秒8千兆位的吞吐量,以使用其高吞吐量的Ku频段有效载荷为家庭和移动平台提供互联网接入。该卫星仍在工作。
2D Orbit Map
3D Orbit Map
Orbit Altitude Analysis Chart
Orbit Inclination Analysis Chart
Orbit Comprehensive Analysis Chart
View Comprehensive Chart
Miss Distance Evolution Trend with All Objects Subscribe to Flight Safety Assessment
Collision Probability Evolution Trend with All Objects Subscribe to Flight Safety Assessment